Preview of NWS' New Version of Forecast
This preview is not operational and should not be used for support decisions.

Regional Weather Roundup (RWR)

Issued by National Weather Service (NWS)

                            
000
ASUS45 KBOI 180110
RWRID 

IDAHO REGIONAL WEATHER ROUNDUP
NATIONAL WEATHER SERVICE BOISE ID
700 PM MDT TUE SEP 17 2019

NOTE: "FAIR" INDICATES FEW OR NO CLOUDS BELOW 12000 FEET
WITH NO SIGNIFICANT WEATHER AND/OR OBSTRUCTIONS TO VISIBILITY

IDZ012-014-180200-
SOUTHWEST IDAHO

  
CITY           SKY/WX    TMP DP  RH WIND       PRES   REMARKS
BOISE          PTCLDY    67  38  34 E7        29.95F                  
CALDWELL       MOCLDY    65  43  44 NE8       29.93F                  
MOUNTAIN HOME  CLEAR     69  36  30 E6        29.94F                  
$$

IDZ016-017-180200-
SOUTHCENTRAL IDAHO

  
CITY           SKY/WX    TMP DP  RH WIND       PRES   REMARKS
BURLEY         CLEAR     63  35  35 N3        30.02F                  
JEROME         CLEAR     62  42  47 NE6       30.01F                  
TWIN FALLS     CLEAR     61  40  45 E8        30.01F                  
$$

IDZ019>023-180200-
SOUTHEAST IDAHO

  
CITY           SKY/WX    TMP DP  RH WIND       PRES   REMARKS
IDAHO FALLS    CLEAR     57  33  40 S16       30.07R                  
POCATELLO      CLEAR     60  32  34 W8        30.07S                  
REXBURG        CLEAR     57  35  43 S15G24    30.06R                  
$$

IDZ006-010-011-018-031-032-180200-
CENTRAL IDAHO MOUNTAINS

  
CITY           SKY/WX    TMP DP  RH WIND       PRES   REMARKS
MCCALL         CLOUDY    51  35  54 S10       30.01F                  
HAILEY         CLEAR     55  34  44 NW7       30.09R                  
STANLEY          N/A     51  30  44 SW3       30.08S                  
SALMON         CLEAR     58  45  62 CALM      29.97S                  
CHALLIS        PTCLDY    61  32  33 CALM      29.99R                  
$$

IDZ002-004-006-007-026-180200-
NORTHERN IDAHO

  
CITY           SKY/WX    TMP DP  RH WIND       PRES   REMARKS
LEWISTON       CLOUDY    72  38  29 S5        29.82F                  
LOWELL           N/A     62  50  64 CALM      29.89S                  
COEUR D'ALENE  MOCLDY    63  39  41 S3        29.88F                  
MULLAN PASS    PTCLDY    45  34  65 SW6       29.97F                  
$$